Regional Weather Roundup
Issued by NWS Wakefield, VA

Home | Current Version | Previous Version | Text Only | Print | Product List | Glossary On
Versions: 1 2 3 4 5 6 7 8 9 10 11 12 13 14 15 16 17 18 19 20 21 22 23 24 25 26 27 28 29 30 31 32 33 34 35 36 37 38 39 40 41 42 43 44 45 46 47 48 49 50
000
ASUS41 KAKQ 280915
RWRAKQ

REGIONAL WEATHER ROUNDUP
NATIONAL WEATHER SERVICE WAKEFIELD VA
500 AM EDT TUE JUL 28 2015

Note: "fair" indicates few or no clouds below 12,000 feet with no
significant weather and/or obstructions to visibility. * = Denotes
station may not report precipitation (e.g., rain,snow,etc.),
thunder or fog.

VAZ042-051-052>054-056-281000-
NORTHERN VIRGINIA

CITY           SKY/WX    TMP DP  RH WIND       PRES   REMARKS
WASH NATIONAL  MOCLDY    77  72  84 CALM      30.00F
DULLES         PTCLDY    70  69  97 CALM      30.00F
FORT BELVOIR   CLEAR     70  68  94 CALM      30.00S
QUANTICO       CLEAR     73  68  84 W6        30.00F
FREDERICKSBRG* CLEAR     71  71 100 CALM      29.99S
STAFFORD*      CLEAR     67  66  97 CALM      30.04F FOG
WARRENTON      CLOUDY    70  70 100 CALM      30.00S FOG
CULPEPER*      CLOUDY    68  68  99 NE3       30.01F FOG
MANASSAS*      CLEAR     70  70 100 CALM      30.00S
LEESBURG*      CLEAR     72  72 100 NW5       30.02S
WINCHESTER     PTCLDY    70  68  94 CALM      30.02S FOG
FRONT ROYAL*   PTSUNNY   68  66  94 CALM      30.01F
LURAY*         FOG       70  70 100 CALM      30.02F VSB 1/4
$$

VAZ048-049-060>072-079>083-281000-
CENTRAL AND SOUTH CENTRAL VIRGINIA

CITY           SKY/WX    TMP DP  RH WIND       PRES   REMARKS
RICHMOND       PTCLDY    74  71  91 CALM      29.99F
CHESTERFIELD*  FAIR      72  61  68 SE3       30.01S
PETERSBURG*    CLOUDY    71  71 100 CALM      30.00F
HANOVER        FOG       68  68 100 CALM      30.01S VSB 1
TAPPAHANNOCK*  CLEAR     69  66  90 CALM      30.00F
QUINTON*       FAIR      71  71  99 CALM      29.99S
CHARLOTTSVILLE CLOUDY    72  70  93 CALM      30.00F FOG
GORDONSVILLE*  FAIR      66  66 100 CALM      29.99F FOG
ORANGE*        CLEAR     68  68 100 CALM      30.01F FOG
LOUISA*        FOG       70  68  94 CALM      29.99F VSB 1
BUMPASS*       FAIR      68  67  98 CALM      29.99F
FARMVILLE*     FOG       73  73 100 CALM      29.99S VSB 1/2
CREWE*         FAIR     N/A N/A N/A CALM      29.99F
FORT PICKETT*  FAIR      70  69  98 CALM      30.00F
CHASE CITY*    PTSUNNY   75  75 100 CALM      30.00F
CLARKSVILLE*   FAIR      72  72 100 S3        29.99F
SOUTH HILL*    MOCLDY    70  70  98 S3        30.05F
LAWRENCEVILLE* FAIR      70  70 100 CALM      30.00S
EMPORIA*       MOCLDY    70  70 100 CALM      30.02S
$$

VAZ088>098-281000-
SOUTHEAST VIRGINIA

CITY           SKY/WX    TMP DP  RH WIND       PRES   REMARKS
NORFOLK        PTCLDY    75  69  81 S3        30.00F
VIRGINIA BEACH MOCLDY    76  70  82 CALM      30.00S
NORFOLK NAVAL  MOCLDY    77  70  79 CALM      30.02S
WEST POINT*    CLEAR     78  71  80 CALM      30.01F
SALUDA*        FAIR      72  72  99 CALM      30.00S
NEWPORT NEWS   CLOUDY    77  71  82 SW7       30.00S
LANGLEY AFB    MOCLDY    77  71  83 SW3       30.01R
FORT EUSTIS    MOCLDY    76  76 100 SW3       29.98F
WILLIAMSBURG*  CLEAR     79  73  83 CALM      30.01S
HR EXEC AP*    FAIR      68  64  88 CALM      30.03S
FRANKLIN*      MOCLDY    70  69  98 CALM      30.01S
WAKEFIELD      MOCLDY    72  70  93 CALM      30.00S
$$

VAZ020-022-025-037-045-281000-
WEST CENTRAL AND SOUTHWEST VIRGINIA

CITY           SKY/WX    TMP DP  RH WIND       PRES   REMARKS
STAUNTON*      PTCLDY    69  67  93 NW3       30.04F FOG
WAYNESBORO*    CLOUDY    68  68 100 CALM      30.03F VSB 1/4
HOT SPRINGS VA PTCLDY    68  68 100 S5        30.13S
LYNCHBURG      CLOUDY    71  71 100 CALM      30.03S
DANVILLE       PTCLDY    74  72  93 CALM      30.01S FOG
SOUTH BOSTON*  PTSUNNY   71  69  95 CALM      30.00S
MARTINSVILLE   CLEAR     69  69 100 CALM      30.04R FOG
ROANOKE        CLOUDY    73  69  87 NE5       30.05R
BLACKSBURG     CLEAR     67  67 100 CALM      30.09S FOG
DUBLIN*        FOG       69  69 100 CALM      30.08S VSB 1/2
MARION*        FOG       67  66  96 CALM      30.11F VSB 1/4
HILLSVILLE*    FOG       67  67  99 CALM      30.09S VSB 1/4
RICHLANDS*     CLOUDY    69  68  97 CALM      30.09F
WISE*          MOCLDY    70  70 100 CALM      30.10S FOG
ABINGDON*      CLOUDY    72  69  90 E3        30.07R
$$

MDZ021>025-VAZ099-100-281000-
SOUTHERN MARYLAND AND THE DELMARVA PENINSULA

CITY           SKY/WX    TMP DP  RH WIND       PRES   REMARKS
PATUXENT RIVER PTCLDY    72  70  93 CALM      29.99F
BAY BRIDGE APT   N/A     75  72  88 CALM      30.00S
LEONARDTOWN    PTCLDY    70  68  94 CALM      30.01F
DOVER          CLEAR     73  73 100 W2        29.99S
GEORGETOWN     CLEAR     70  69  97 CALM      30.01S
EASTON         CLEAR     74  74 100 CALM      30.04S
CAMBRIDGE      CLEAR     72  68  88 CALM      29.99F
SALISBURY      MOCLDY    69  68  96 CALM      30.00F
OCEAN CITY     MOCLDY    75  72  90 SW3       30.00F
WALLOPS ISLAND CLEAR     74  73  97 SW5       30.01S
ACCOMACK*      PTCLDY   N/A N/A N/A S3        30.00F
$$

NCZ012>017-030>032-281000-
NORTH CENTRAL AND EASTERN NORTH CAROLINA

CITY           SKY/WX    TMP DP  RH WIND       PRES   REMARKS
ROANOKE RAPIDS FAIR      68  68 100 CALM      30.00S
RALEIGH        MOCLDY    74  70  87 S3        30.00F
ELIZABETH CITY CLEAR     71  70  96 CALM      30.00F
AHOSKIE*       PTCLDY    68  67  98 CALM      30.00F
EDENTON*       CLEAR     71  69  94 CALM      30.00F
CURRITUCK*     CLEAR     72  69  90 CALM      30.01F
KILL DEVIL HLS CLEAR     73  68  84 CALM      29.99F
MANTEO         CLEAR     70  68  95 CALM      30.00F
CAPE HATTERAS  CLEAR     72  69  90 NE3       30.00S
TARBORO*         N/A     69  68  96 CALM      30.01S
GOLDSBORO      CLEAR     72  71  98 E2        29.97F
WASHINGTON     CLEAR     69  68  96 CALM      30.00F
GREENVILLE     CLEAR     70  70 100 CALM      30.01F
NEW BERN       MOCLDY    71  68  90 CALM      30.00S FOG
WILMINGTON     PTCLDY    71  70  96 NE5       29.96F
$$

VAZ048-281000-
ELSEWHERE

CITY           SKY/WX    TMP DP  RH WIND       PRES   REMARKS
HARRISBURG PA  PTCLDY    73  69  87 CALM      30.00S FOG
BALTIMORE      MOCLDY    73  72  96 CALM      29.99F FOG
ANNAPOLIS      MOCLDY    75  71  87 CALM      29.99F
ANDREWS AFB    CLEAR     70  70  99 CALM      30.00F
PHILADELPHIA   MOCLDY    76  71  85 CALM      30.00F
HENDERSON NC   PTCLDY    72  69  89 CALM      30.00F
GREENSBORO     MOCLDY    71  70  96 SE3       30.01S
ROCKY MOUNT    CLEAR     70  69  97 CALM      30.00S FOG
$$

VAZ100-281000-
MARINE

STATION/POSITION TIME  TEMP    WIND        PRES    WAVE   SWELL
                       AIR SEA DIR/SP/G            HT/PER HT/PER
                 (UTC) (F)     (DEG/KT/KT) (MB)    (FT/S) (FT/S)
BRANDYWINE LGT   0800   75 76  220/  9/  9 1016.2F
CAPE MAY NJ      0800   75 79  200/  3/  5 1015.8S
LEWES DE         0800   74 71  210/  3/  5 1015.8F
15NM E FENWICK I 0850   78 78  210/  8/ 10 1016.0F   2/11   2/11
OCEAN-CITY-INLET 0800   75 76  220/  4/  5 1015.3F
WACHAPREAGUE VA  0800   77 82  240/  2/  3 1016.3S
GOOSES REEF MD   0900   78 81  210/  2/  4 1016.7F
COVE POINT MD    0800   76     260/  1/  2 1016.6F
SOLOMONS ISLAND  0800      82                N/A
BISHOPS HEAD MD  0800   80 80  220/  7/  9 1015.1F
POTOMAC MD       0900   78 82  260/  6/  8 1014.6F   1
CAMBRIDGE MD     0800   75 83  190/  2/  2 1015.2F
LEWISETTA VA     0800   75 82  250/  5/  6 1015.5F
RAPPAHANNOCK LGT 0800          220/ 11/ 12 1016.6R
STINGRAY PT      0900   79 83  230/  8/  8 1015.9F   1/ 3
YORK RVR RNG VA  0800   79     250/  7/  8 1015.5R
YORKTOWN VA      0800   77 83  230/  5/  7 1015.5F
JAMESTOWN VA     0900   77 84  240/  6/  8   N/A
DOMINION TERM VA 0800   78     210/  7/  8 1015.8F
KIPTOPEKE VA     0800      86  220/  7/  9   N/A
CHES BAY BRIDGE  0800   78 81  180/  5/  7 1015.7R
CAPE HENRY VA    0800   76     210/  3/  4   N/A
CHESAPEAKE LGHT  0800   79     210/  9/ 10 1016.8S
WILLOUBY STN VA  0800   78     230/  6/  8 1016.8F
CAPE HENRY BUOY  0828      80                N/A     3/11
1ST LANDING BUOY 0900      80              1015.6F   1/ 4
CAPE CHARLES BUO 0826      79                N/A     2/11   2/11
OFFSHORE WE BUOY 0811      80                N/A     3/11   2/11
64NM E OF VA BCH 0850   79 80  180/  4/  6 1015.8F   2/11   2/11
DUCK PIER NC     0800   78 76  170/  4/  5 1015.3S
44100 DUCK FRF   0824      80                N/A     2/12   2/12
44056 DUCK FRF   0811      80                N/A     2/11   2/11
OREGON INLET NC  0800   77 81  110/  3/  3 1016.0F
HATTERAS NC      0800   78 82   40/  2/  3 1015.5F
CAPE LOOKOUT NC  0900   80      80/  8/  9 1014.9F
$$



USA.gov is the U.S. government's official web portal to all federal, state and local government web resources and services.